Location: Unspecified
(0.0000°N, 0.0000°E)
Time: 13:45:31
(UTC+00:00)

Courier 1B - Pass Details

Date: 20 November 2019
Orbit: 963 x 1209 km, 28.3° (Epoch: 08 December)

Event Time Altitude Azimuth Distance (km) Brightness Sun altitude
Rises 01:19:20 0° 239° (WSW) 4,099 - -59.8°
Reaches altitude 10° 01:22:14 10° 239° (WSW) 3,120 - -59.3°
Maximum altitude 01:30:02 88° 152° (SSE) 1,159 - -57.8°
Drops below altitude 10° 01:37:25 10° 60° (ENE) 2,964 - -56.3°
Sets 01:40:06 0° 60° (ENE) 3,884 - -55.8°
